Flag for Poland Weather past 2 weeks in Słupsk, Poland

Now
51 °F

Passing clouds.


Feels Like: 49 °F
Forecast: 56 / 61 °F
Wind: 6 mph from Southwest

Location: Leba

Current Time: Jul 30, 2015 at 7:02:04 AM

Latest Report: Jul 30, 2015 at 4:00 AM


Visibility: 13 mi

Pressure: 29.62 "Hg

Humidity: 91%

Dew point: 48 °F

Location of SłupskLocation

Historic Weather in Słupsk — Graph

°F

Słupsk temperature yesterday

Maximum temperature yesterday: 65 °F (at 10:00 AM)
Minimum temperature yesterday: 52 °F (at 11:00 PM)
Average temperature yesterday: 59 °F

Past Weeks' High & Low Weather Summary

 TemperatureHumidityPressure
High78 °F (Jul 25, 6:00 PM)100% (Jul 21, 6:00 AM)30.07 "Hg (Jul 21, 6:00 AM)
Low50 °F (Jul 16, 4:00 AM)41% (Jul 22, 4:00 PM)29.50 "Hg (Jul 28, 6:00 AM)
Average62 °F77%29.83 "Hg
* Reported Jul 15 4:00 AM — Jul 30 4:00 AM, Słupsk, Weather by CustomWeather, © 2015

Note: Actual official high and low records may vary slightly from our data, if they occured in-between our weather recording intervals... More about our weather records

Advertising

Słupsk weather history for previous 24 hours

 ConditionsComfort  
Time TempWeatherWind HumidityBarometerVisibility
4:00 AM
Thu, Jul 30
51 °FPassing clouds.6 mph91%29.62 "Hg12 mi
3:00 AM52 °FPassing clouds.8 mph90%29.63 "Hg12 mi
2:00 AM53 °FPassing clouds.29 mph90%29.63 "Hg2 mi
1:00 AM53 °FPassing clouds.7 mph88%29.63 "Hg12 mi
12:00 AM52 °FOvercast.6 mph95%29.63 "Hg12 mi
11:00 PM
Wed, Jul 29
52 °FPassing clouds.22 mph94%29.63 "Hg1 mi
10:00 PMN/APassing clouds.26 mphN/AN/A3 mi
9:00 PM53 °FPassing clouds.6 mph93%29.66 "Hg12 mi
8:00 PM55 °FSprinkles. Overcast.7 mph87%29.64 "Hg11 mi
7:00 PM57 °FThunderstorms. Overcast.7 mph89%29.65 "Hg12 mi
6:00 PM60 °FThunderstorms. Overcast.3 mph83%29.62 "Hg12 mi
5:00 PM59 °FOvercast.9 mph74%29.63 "Hg12 mi
4:00 PM63 °FOvercast.5 mph79%29.63 "Hg12 mi
3:00 PM61 °FOvercast.3 mph80%29.64 "Hg12 mi
2:00 PM60 °FSprinkles. Overcast.8 mph86%29.64 "Hg12 mi
1:00 PM62 °FOvercast.5 mph83%29.64 "Hg12 mi
12:00 PM62 °FOvercast.8 mph77%29.63 "Hg12 mi
11:00 AM63 °FOvercast.9 mph70%29.63 "Hg12 mi
10:00 AM65 °FScattered clouds.9 mph69%29.63 "Hg12 mi
9:00 AM63 °FPassing clouds.9 mph75%29.63 "Hg12 mi
8:00 AM60 °FScattered clouds.8 mph81%29.64 "Hg12 mi
Weather by CustomWeather, © 2015

See weather overviewHow to use our weather pages